This is the latest recevied weather packets stored in our database for station/object DB0WUN-13. If no packets are shown the sender has not sent any weather packets the latest 1 day(s).
| Time | Temp. | Humidity | Pressure | Rain* | Wind** | Luminosity | Snow |
|---|---|---|---|---|---|---|---|
| 1778046274 | 11.11° C | 88% | 1007.6 hPa | 0 mm | 1.34 m/s, 239° | 42 W/m² | - |
| 1778046208 | 11.11° C | 88% | 1007.6 hPa | 0 mm | 1.34 m/s, 233° | 35 W/m² | - |
| 1778046153 | 11.11° C | 88% | 1007.6 hPa | 0 mm | 1.34 m/s, 240° | 33 W/m² | - |
| 1778046113 | 11.11° C | 88% | 1007.6 hPa | 0 mm | 1.34 m/s, 216° | 33 W/m² | - |
| 1778046079 | 11.11° C | 88% | 1007.6 hPa | 0 mm | 1.34 m/s, 214° | 33 W/m² | - |
| 1778046034 | 11.11° C | 88% | 1007.6 hPa | 0 mm | 1.34 m/s, 214° | 28 W/m² | - |
| 1778045997 | 11.11° C | 88% | 1007.6 hPa | 0 mm | 1.34 m/s, 230° | 26 W/m² | - |
| 1778045957 | 11.11° C | 88% | 1007.5 hPa | 0 mm | 1.34 m/s, 224° | 30 W/m² | - |
| 1778045782 | 11.11° C | 88% | 1007.6 hPa | 0 mm | 1.34 m/s, 229° | 37 W/m² | - |
| 1778045720 | 11.11° C | 89% | 1007.5 hPa | 0 mm | 1.34 m/s, 209° | 39 W/m² | - |
| 1778045654 | 11.11° C | 88% | 1007.5 hPa | 0 mm | 1.34 m/s, 227° | 37 W/m² | - |
| 1778045593 | 11.11° C | 88% | 1007.5 hPa | 0 mm | 0.89 m/s, 243° | 33 W/m² | - |
| 1778045532 | 11.11° C | 88% | 1007.5 hPa | 0 mm | 0.89 m/s, 236° | 33 W/m² | - |
| 1778045474 | 11.11° C | 88% | 1007.4 hPa | 0 mm | 0.89 m/s, 205° | 44 W/m² | - |
| 1778045417 | 11.11° C | 88% | 1007.5 hPa | 0 mm | 0.89 m/s, 216° | 62 W/m² | - |
| 1778045355 | 11.11° C | 88% | 1007.5 hPa | 0 mm | 0.89 m/s, 215° | 62 W/m² | - |
| 1778045293 | 11.11° C | 88% | 1007.5 hPa | 0 mm | 0.89 m/s, 216° | 127 W/m² | - |
| 1778045232 | 11.11° C | 88% | 1007.6 hPa | 0 mm | 0.89 m/s, 239° | 79 W/m² | - |
| 1778045170 | 11.11° C | 89% | 1007.5 hPa | 0 mm | 0.89 m/s, 215° | 98 W/m² | - |
| 1778045118 | 11.11° C | 89% | 1007.6 hPa | 0 mm | 0.89 m/s, 238° | 77 W/m² | - |
| 1778045048 | 11.11° C | 89% | 1007.6 hPa | 0 mm | 0.89 m/s, 216° | 63 W/m² | - |
| 1778044984 | 11.11° C | 89% | 1007.6 hPa | 0 mm | 0.89 m/s, 210° | 69 W/m² | - |
| 1778044924 | 11.11° C | 89% | 1007.6 hPa | 0 mm | 0.89 m/s, 233° | 69 W/m² | - |
| 1778044865 | 11.11° C | 89% | 1007.6 hPa | 0 mm | 1.34 m/s, 243° | 76 W/m² | - |
| 1778044812 | 11.11° C | 89% | 1007.6 hPa | 0 mm | 1.34 m/s, 218° | 84 W/m² | - |
* Rain latest hour (hover to see other rain measurements)
** Current wind speed in m/s (hover to see current wind gust speed)